• In Romania
  • List of Countries
  • For 7 days
  • Water Temperature
  • Satellite Maps
  • Weather Map
  • Weather Widgets
  • user-avatar
    Login

    Hourly Weather Passo Fundo

    Today, 20 April, Friday

    Time Temperature Precipitation Wind Pressure Humidity
    00:00 +18°C° 0 mm 2 mps 709 mmHg 69%
    01:00 +18°C° 0 mm 2 mps 709 mmHg 71%
    02:00 +17°C° 0 mm 2 mps 709 mmHg 73%
    03:00 +17°C° 0 mm 2 mps 709 mmHg 75%
    04:00 +17°C° 0 mm 2 mps 709 mmHg 77%
    05:00 +16°C° 0 mm 2 mps 709 mmHg 78%
    06:00 +16°C° 0 mm 2 mps 708 mmHg 79%
    07:00 +18°C° 0 mm 2 mps 709 mmHg 76%
    08:00 +19°C° 0 mm 2 mps 709 mmHg 72%
    09:00 +20°C° 0 mm 2 mps 710 mmHg 69%
    10:00 +24°C° 0 mm 2 mps 710 mmHg 62%
    11:00 +26°C° 0 mm 2 mps 710 mmHg 56%
    12:00 +28°C° 0 mm 2 mps 710 mmHg 50%
    13:00 +28°C° 0 mm 1 mps 709 mmHg 47%
    14:00 +29°C° 0 mm 1 mps 709 mmHg 44%
    15:00 +29°C° 0 mm 1 mps 708 mmHg 42%
    16:00 +27°C° 0 mm 1 mps 708 mmHg 47%
    17:00 +26°C° 0 mm 1 mps 708 mmHg 53%
    18:00 +24°C° 0 mm 1 mps 707 mmHg 58%
    19:00 +23°C° 0 mm 1 mps 708 mmHg 59%
    20:00 +22°C° 0 mm 1 mps 708 mmHg 61%
    21:00 +21°C° 0 mm 1 mps 708 mmHg 62%
    22:00 +20°C° 0 mm 2 mps 708 mmHg 63%
    23:00 +20°C° 0 mm 2 mps 708 mmHg 64%

    Tomorrow, 21 April, Saturday

    Time Temperature Precipitation Wind Pressure Humidity
    00:00 +19°C° 0 mm 2 mps 708 mmHg 65%
    01:00 +19°C° 0 mm 2 mps 708 mmHg 68%
    02:00 +18°C° 0 mm 2 mps 708 mmHg 72%
    03:00 +17°C° 0 mm 2 mps 708 mmHg 76%
    04:00 +17°C° 0 mm 2 mps 708 mmHg 77%
    05:00 +17°C° 0 mm 2 mps 707 mmHg 79%
    06:00 +16°C° 0 mm 2 mps 707 mmHg 81%
    07:00 +18°C° 0.1 mm 2 mps 708 mmHg 76%
    08:00 +19°C° 0.1 mm 2 mps 709 mmHg 71%
    09:00 +21°C° 0.1 mm 2 mps 709 mmHg 67%
    10:00 +24°C° 0.2 mm 2 mps 709 mmHg 61%
    11:00 +25°C° 0.2 mm 2 mps 709 mmHg 56%
    12:00 +27°C° 0.2 mm 2 mps 709 mmHg 51%
    13:00 +28°C° 0 mm 1 mps 709 mmHg 50%
    14:00 +29°C° 0 mm 1 mps 708 mmHg 49%
    15:00 +29°C° 0 mm 1 mps 707 mmHg 48%
    16:00 +28°C° 0 mm 1 mps 707 mmHg 54%
    17:00 +26°C° 0 mm 1 mps 707 mmHg 61%
    18:00 +24°C° 0 mm 1 mps 707 mmHg 67%
    19:00 +24°C° 0 mm 1 mps 707 mmHg 70%
    20:00 +23°C° 0 mm 1 mps 707 mmHg 73%
    21:00 +22°C° 0 mm 1 mps 707 mmHg 76%
    22:00 +20°C° 0 mm 2 mps 707 mmHg 78%
    23:00 +20°C° 0 mm 2 mps 707 mmHg 79%

    Day after tomorrow, 22 April, Sunday

    Time Temperature Precipitation Wind Pressure Humidity
    00:00 +19°C° 0 mm 2 mps 707 mmHg 81%
    01:00 +19°C° 0 mm 2 mps 707 mmHg 81%
    02:00 +19°C° 0 mm 2 mps 707 mmHg 81%
    03:00 +18°C° 0 mm 3 mps 706 mmHg 81%
    04:00 +18°C° 0 mm 3 mps 707 mmHg 81%
    05:00 +18°C° 0 mm 3 mps 707 mmHg 81%
    06:00 +17°C° 0 mm 3 mps 707 mmHg 81%
    07:00 +18°C° 0 mm 3 mps 707 mmHg 78%
    08:00 +20°C° 0 mm 3 mps 708 mmHg 74%
    09:00 +21°C° 0 mm 3 mps 708 mmHg 71%
    10:00 +24°C° 0 mm 3 mps 709 mmHg 64%
    11:00 +26°C° 0 mm 3 mps 709 mmHg 58%
    12:00 +28°C° 0 mm 3 mps 709 mmHg 51%
    13:00 +28°C° 0 mm 2 mps 708 mmHg 49%
    14:00 +29°C° 0 mm 1 mps 708 mmHg 47%
    15:00 +30°C° 0 mm 1 mps 707 mmHg 45%
    16:00 +28°C° 0 mm 1 mps 707 mmHg 51%
    17:00 +26°C° 0 mm 1 mps 707 mmHg 56%
    18:00 +25°C° 0 mm 1 mps 707 mmHg 61%
    19:00 +24°C° 0 mm 1 mps 707 mmHg 65%
    20:00 +23°C° 0 mm 1 mps 707 mmHg 68%
    21:00 +22°C° 0 mm 1 mps 708 mmHg 71%
    22:00 +20°C° 0 mm 2 mps 708 mmHg 74%
    23:00 +20°C° 0 mm 2 mps 708 mmHg 77%

    23 April, Monday

    Time Temperature Precipitation Wind Pressure Humidity
    00:00 +19°C° 0 mm 3 mps 708 mmHg 81%
    01:00 +19°C° 0 mm 3 mps 708 mmHg 82%
    02:00 +18°C° 0 mm 3 mps 708 mmHg 84%
    03:00 +18°C° 0 mm 4 mps 708 mmHg 86%
    04:00 +18°C° 0 mm 4 mps 708 mmHg 86%
    05:00 +17°C° 0 mm 4 mps 708 mmHg 87%
    06:00 +17°C° 0 mm 4 mps 708 mmHg 87%
    07:00 +18°C° 0 mm 4 mps 709 mmHg 83%
    08:00 +19°C° 0 mm 4 mps 709 mmHg 79%
    09:00 +20°C° 0 mm 4 mps 710 mmHg 75%
    10:00 +22°C° 0 mm 3 mps 710 mmHg 68%
    11:00 +25°C° 0 mm 3 mps 710 mmHg 61%
    12:00 +27°C° 0 mm 2 mps 711 mmHg 54%
    13:00 +28°C° 0 mm 2 mps 710 mmHg 52%
    14:00 +29°C° 0 mm 1 mps 710 mmHg 50%
    15:00 +27°C° 0 mm 0 mps 709 mmHg 48%
    16:00 +28°C° 0 mm 1 mps 709 mmHg 53%
    17:00 +26°C° 0 mm 1 mps 709 mmHg 59%
    18:00 +24°C° 0 mm 1 mps 709 mmHg 64%
    19:00 +24°C° 0 mm 1 mps 709 mmHg 66%
    20:00 +23°C° 0 mm 2 mps 709 mmHg 68%
    21:00 +21°C° 0 mm 2 mps 710 mmHg 70%
    22:00 +20°C° 0 mm 2 mps 710 mmHg 73%
    23:00 +20°C° 0 mm 3 mps 710 mmHg 76%

    24 April, Tuesday

    Time Temperature Precipitation Wind Pressure Humidity
    00:00 +19°C° 0 mm 3 mps 710 mmHg 80%
    01:00 +19°C° 0 mm 3 mps 710 mmHg 83%
    02:00 +18°C° 0 mm 3 mps 709 mmHg 86%
    03:00 +17°C° 0 mm 3 mps 709 mmHg 89%
    04:00 +17°C° 0 mm 3 mps 710 mmHg 88%
    05:00 +17°C° 0 mm 3 mps 710 mmHg 88%
    06:00 +16°C° 0 mm 3 mps 710 mmHg 87%
    07:00 +17°C° 0 mm 3 mps 711 mmHg 82%
    08:00 +18°C° 0 mm 4 mps 711 mmHg 78%
    09:00 +19°C° 0 mm 4 mps 712 mmHg 73%
    10:00 +21°C° 0 mm 4 mps 712 mmHg 66%
    11:00 +24°C° 0 mm 3 mps 712 mmHg 59%
    12:00 +26°C° 0 mm 3 mps 711 mmHg 52%
    13:00 +27°C° 0 mm 2 mps 711 mmHg 49%
    14:00 +28°C° 0 mm 1 mps 710 mmHg 45%
    15:00 +29°C° 0 mm 1 mps 710 mmHg 42%
    16:00 +27°C° 0 mm 1 mps 710 mmHg 47%
    17:00 +25°C° 0 mm 1 mps 710 mmHg 53%
    18:00 +23°C° 0 mm 1 mps 710 mmHg 58%
    19:00 +22°C° 0 mm 1 mps 710 mmHg 60%
    20:00 +22°C° 0 mm 1 mps 710 mmHg 62%
    21:00 +20°C° 0 mm 2 mps 711 mmHg 64%
    22:00 +19°C° 0 mm 2 mps 710 mmHg 68%
    23:00 +19°C° 0 mm 2 mps 710 mmHg 72%

    25 April, Wednesday

    Time Temperature Precipitation Wind Pressure Humidity
    00:00 +18°C° 0 mm 2 mps 710 mmHg 77%
    01:00 +18°C° 0 mm 2 mps 710 mmHg 81%
    02:00 +17°C° 0 mm 2 mps 710 mmHg 85%
    03:00 +17°C° 0 mm 2 mps 710 mmHg 90%
    04:00 +17°C° 0 mm 3 mps 710 mmHg 91%
    05:00 +17°C° 0 mm 3 mps 710 mmHg 93%
    06:00 +16°C° 0 mm 3 mps 710 mmHg 95%
    07:00 +18°C° 0 mm 3 mps 710 mmHg 89%
    08:00 +19°C° 0 mm 3 mps 711 mmHg 83%
    09:00 +20°C° 0 mm 3 mps 711 mmHg 77%
    10:00 +22°C° 0 mm 3 mps 711 mmHg 69%
    11:00 +25°C° 0 mm 2 mps 711 mmHg 61%
    12:00 +27°C° 0 mm 2 mps 711 mmHg 52%
    13:00 +28°C° 0 mm 1 mps 710 mmHg 49%
    14:00 +28°C° 0 mm 1 mps 710 mmHg 46%
    15:00 +29°C° 0 mm 1 mps 709 mmHg 44%
    16:00 +27°C° 0 mm 1 mps 709 mmHg 49%
    17:00 +25°C° 0 mm 1 mps 709 mmHg 54%
    18:00 +24°C° 0 mm 1 mps 708 mmHg 60%
    19:00 +23°C° 0 mm 1 mps 709 mmHg 62%
    20:00 +22°C° 0 mm 1 mps 709 mmHg 64%
    21:00 +21°C° 0 mm 1 mps 709 mmHg 66%
    22:00 +20°C° 0 mm 2 mps 709 mmHg 69%
    23:00 +19°C° 0 mm 2 mps 709 mmHg 73%
    Show more